Regional Weather Roundup
Issued by NWS Cleveland, OH

Home | Current Version | Previous Version | Text Only | Print | Product List | Glossary Off
Versions: 1 2 3 4 5 6 7 8 9 10 11 12 13 14 15 16 17 18 19 20 21 22 23 24 25 26 27 28 29 30 31 32 33 34 35 36 37 38 39 40 41 42 43 44 45 46 47 48 49 50

000
ASUS41 KCLE 220202
RWRCLE
OHIO REGIONAL WEATHER ROUNDUP
NATIONAL WEATHER SERVICE CLEVELAND, OH
900 PM EST WED FEB 21 2018

NOTE: "FAIR" INDICATES FEW OR NO CLOUDS BELOW 12,000 FEET WITH NO
SIGNIFICANT WEATHER AND/OR OBSTRUCTIONS TO VISIBILITY.

OHZ001>008-015>018-024>027-034-035-043-044-220300-
   NORTHWEST OHIO

CITY           SKY/WX    TMP DP  RH WIND       PRES   REMARKS
DEFIANCE       CLOUDY    38  33  82 NE7       30.57F
FINDLAY        CLOUDY    37  32  82 NE10      30.57R
TOLEDO EXPRESS CLOUDY    36  34  92 E7        30.59S
TOLEDO EXEC    MOCLDY    35  30  82 E9        30.61S WCI  28
LIMA           LGT RAIN  36  36 100 NE13      30.55R
$$

OHZ009>014-019>023-028>033-038-089-220300-
   NORTHEAST OHIO

CITY           SKY/WX    TMP DP  RH WIND       PRES   REMARKS
CLE-HOPKINS    CLOUDY    34  28  79 NE12      30.61R WCI  25
CLE-LAKEFRONT  CLOUDY    33  28  81 NE12      30.60R WCI  24
CUY CO. ARPT   CLOUDY    34  28  80 NE9       30.59S WCI  26
LORAIN-ELYRIA  LGT RAIN  33  24  69 NE14      30.59R WCI  23
ASHTABULA      CLOUDY    33  30  88 VRB3      30.58S
AKRON-CANTON   LGT RAIN  35  31  85 NE10      30.55R WCI  27
WOOSTER        LGT RAIN  34  30  85 N8        30.57R WCI  27
MANSFIELD      MIX PCPN  34  33  96 NE7       30.55S WCI  28
YOUNGSTOWN     LGT RAIN  34  31  88 N7        30.54R WCI  28
$$

OHZ042-051>053-060>062-070>072-077>081-220300-
  SOUTHWEST OHIO

CITY           SKY/WX    TMP DP  RH WIND       PRES   REMARKS
CINC-COVINGTON LGT RAIN  42  42 100 N15       30.46F
CINC-LUNKEN    LGT RAIN  45  43  93 N9        30.48F
HAMILTON       LGT RAIN  43  31  62 N8        30.50F
DAYTON         LGT RAIN  40  40 100 NE14      30.52S
WRIGHT-PAT AFB LGT RAIN  40  37  88 NE10      30.51S
DAYTON GENERAL LGT RAIN  43  39  86 NE16      30.48F
WILMINGTON     LGT RAIN  41  41 100 NE17      30.47F
$$

OHZ036-037-039>041-045>050-054>059-063>069-073>076-082>088-220300-
  CENTRAL AND SOUTHEAST OHIO

CITY           SKY/WX    TMP DP  RH WIND       PRES   REMARKS
COLUMBUS       LGT RAIN  41  38  89 NE14      30.52F
OSU AIRPORT    LGT RAIN  39  38  96 NE15      30.52F
BOLTON FIELD   LGT RAIN  41  39  95 NE9       30.53R
RICKENBACK AFB LGT RAIN  41  40  99 NE15G21   30.52R
NEWARK         LGT RAIN  40  36  86 N9G17     30.52R
MARION         MIX PCPN  36  33  89 NE13      30.56S
LANCASTER      LGT RAIN  41  39  93 NE13      30.53R
ZANESVILLE     LGT RAIN  41  38  89 N8        30.52R FOG
NEW PHILLY     NOT AVBL
$$




USA.gov is the U.S. government's official web portal to all federal, state and local government web resources and services.